Вернуться в каталог

SEDNA-2

АктивенНаукаSSO
NORAD 63153·PAYLOAD·🇺🇸 United States

Запущен Jan 14, 2025 с Vandenberg Space Force Base

Loading…

Ближайшие Пролёты (ближайшие 24 часа)

TLE

СвежийSource: Space-Track

Эпоха: Sep 14, 2026, 10:26 UTC

1 63153U 25009DQ  26257.43535648  .00005037  00000-0  28927-3 0  9990
2 63153  97.4464 328.8651 0010308 112.3263 247.9061 15.12913489 91616

Отслеживайте SEDNA-2 в реальном времени с AllMySat

Download on the App Store